Weather in Voskresenskoe

Russia / Nizhny Novgorod Oblast'     56°50′09″N   45°26′09″E
temp.,
°C
wind,
m/s
gust,
m/s
humid.,
%
clouds,
%
prec.,
mm/h
press.,
hPa
HPBL,
m
18 january, tue
tue1800:00−5ssw51294100 0.3 992669
03:00−4s41195100 0.8 993586
06:00−4s31096100 0.4 994484
09:00−3ssw3996100 0.6 996400
12:00−2ssw2597100 0.2 998368
15:00−1sw1398100 0.6 1001172
18:00−3nw2498100 0.5 1003125
21:00−5nnw389699 0.7 1006326
19 january, wed
wed1900:00−10nw3794100 0.1 1009196
03:00−18w219962 0.1 101213
06:00−19w2210060 0.0 101336
09:00−19w259964 0.0 101561
12:00−12w239263 0.0 1016164
15:00−11sw249558 0.0 1016110
18:00−15wsw2697100 0.0 101796
21:00−16ssw379792 0.0 1017125
20 january, thu
thu2000:00
03:00−13ssw41292100 0.0 1016295
06:00−11ssw41386100 0.0 1015339
09:00
12:00−8ssw51582100 0.0 1015470
15:00−8ssw51482100 0.0 1015539
18:00−9ssw5139168 0.0 1016450
21:00−11s4138969 0.0 1017404
21 january, fri
fri2100:00−12s4158999 0.0 1018410
03:00−12s5158986 0.0 1018422
06:00−12s4149173 0.0 1018390
09:00−12sse4149325 0.0 1019355
12:00−9s5149053 0.0 1019457
15:00−8sse513895 0.0 1019467
18:00−9se414905 0.0 1020431
21:00−9se5159363 0.0 1019426
22 january, sat
sat2200:00−8se51591100 0.0 1019491
03:00−7se51694100 0.4 1019702
06:00−7se51395100 0.8 1019715
09:00−7se41194100 1.4 1021591
12:00−6se41095100 0.5 1022546
15:00−5se4995100 1.1 1023588
18:00−6se3996100 0.8 1024503
21:00−7se4995100 1.5 1025390